Starlink 32885

operational
NORAD ID: 62958 Int'l Des: 2025-029 Owner: SPXS Country: US Constellation: starlink
LEOCIRCULAR

Über Starlink 32885

Beschreibung wird geladen...

Live-Position

3D-Globus wird geladen...

Nächste Überflüge

Höhenverlauf

Altitude vs Time

uPlot chart will show altitude changes over time

Zweizeiliger Elementsatz

1 62958U 25029L 25353.11700745 .00025551 00000-0 87205-3 0 9994
2 62958 53.1591 244.4338 0001200 83.1512 276.9625 15.30191980 49015
Epoch: 19. Dez. 2025 • Age: 18 hours

Aktueller Status

Höhe 485.6 km
Geschwindigkeit 7.62 km/s
Subsatellitenpunkt -31.85°S, 44.58°E
Startdatum 11. Feb. 2025
Alter 0.8 years
Typ internet

Technische Details

Klassifizierung Payload
Masse 730.00 kg
Trockenmasse 700.00 kg
Gesamtmasse 730.00 kg
Länge 0.30 m
Durchmesser 4.10 m
Spannweite 29.00 m
Form Box + pan
Hersteller SPXS
Bus-Typ Starlink V2M
Phasenstatus In Orbit
Besitzer/Staat SPXS/US

Große Konstellationen

Loading constellations...